period_start,C,m1,H,J0,J1,J2,J3,J4,J5,JA,JB,JC,JD,JJ,JK,JN,#
2015-11-14 00:04:37,0.18,2.84,0.00,16.12,20.73,24.64,15.14,50.83,1023.59,2058.10,2418.89,2371.76,2592.38,600.26,614.59,32.41,0000 0000 0000 0000 000000
2015-11-14 00:09:38,0.18,2.85,0.00,16.08,20.72,24.61,15.13,50.84,1023.46,2058.14,2416.61,2369.78,2590.15,599.80,614.21,32.46,0000 0000 0000 0000 000000
2015-11-14 00:14:39,0.12,2.86,0.00,16.09,20.69,24.60,15.21,50.68,1023.46,2058.48,2415.26,2368.88,2588.99,600.21,614.44,32.51,0000 0000 0000 0000 000000
2015-11-14 00:19:40,0.11,2.86,0.00,16.06,20.68,24.60,15.04,50.66,1023.48,2058.81,2414.03,2367.98,2587.99,599.87,614.33,32.56,0000 0000 0000 0000 000000
2015-11-14 00:24:42,0.10,2.87,0.00,16.01,20.66,24.59,15.18,50.87,1023.46,2058.86,2412.79,2367.05,2586.93,600.33,614.79,32.61,0000 0000 0000 0000 000000
2015-11-14 00:29:43,0.12,2.87,0.00,15.97,20.64,24.56,15.07,50.64,1023.46,2058.91,2411.40,2366.06,2585.56,600.00,614.65,32.66,0000 0000 0000 0000 000000
2015-11-14 00:34:44,0.09,2.88,0.00,15.97,20.63,24.56,15.06,50.73,1023.45,2058.98,2410.24,2365.00,2584.67,599.98,614.53,32.71,0000 0000 0000 0000 000000
2015-11-14 00:39:46,0.09,2.88,0.00,15.95,20.61,24.50,15.17,50.57,1023.45,2058.98,2408.96,2363.96,2583.40,599.68,614.35,32.76,0000 0000 0000 0000 000000
2015-11-14 00:44:47,0.11,2.89,0.00,15.90,20.59,24.52,15.02,50.62,1023.42,2058.99,2407.67,2362.91,2582.29,599.88,614.50,32.81,0000 0000 0000 0000 000000
2015-11-14 00:49:48,0.12,2.89,0.00,15.90,20.57,24.49,15.16,50.82,1023.35,2058.99,2405.95,2361.78,2580.86,600.21,614.91,32.86,0000 0000 0000 0000 000000
2015-11-14 00:54:49,0.11,2.90,0.00,15.88,20.56,24.46,15.06,50.62,1023.17,2058.99,2404.50,2360.62,2579.60,599.69,614.31,32.91,0000 0000 0000 0000 000000
2015-11-14 00:59:51,0.11,2.90,0.00,15.86,20.54,24.43,15.12,50.76,1023.05,2058.99,2402.92,2359.48,2578.34,600.20,614.84,32.96,0000 0000 0000 0000 000000
2015-11-14 01:04:52,0.14,2.91,0.00,15.80,20.52,24.44,15.05,50.68,1023.05,2059.00,2401.37,2357.96,2576.75,599.94,614.66,33.01,0000 0000 0000 0000 000000
2015-11-14 01:09:54,0.10,2.92,0.00,15.82,20.50,24.37,15.07,50.63,1023.10,2059.01,2400.04,2356.79,2575.51,599.85,614.52,33.06,0000 0000 0000 0000 000000
2015-11-14 01:14:55,0.15,2.92,0.00,15.79,20.49,24.37,15.04,50.88,1022.99,2059.04,2398.26,2355.33,2573.85,599.83,614.55,33.11,0000 0000 0000 0000 000000
2015-11-14 01:19:56,0.13,2.93,0.00,15.74,20.47,24.37,15.10,50.89,1022.99,2059.06,2396.48,2353.78,2572.16,599.78,614.61,33.17,0000 0000 0000 0000 000000
2015-11-14 01:24:58,0.13,2.94,0.00,15.75,20.44,24.32,15.11,50.95,1022.98,2059.10,2394.80,2352.49,2570.77,600.10,614.80,33.22,0000 0000 0000 0000 000000
2015-11-14 01:29:59,0.12,2.94,0.00,15.73,20.43,24.27,15.15,50.84,1023.11,2059.38,2393.50,2351.60,2569.81,600.28,615.04,33.27,0000 0000 0000 0000 000000
2015-11-14 01:35:00,0.12,2.95,0.00,15.68,20.41,24.26,15.16,50.86,1023.09,2059.87,2392.37,2350.75,2568.86,599.89,614.88,33.32,0000 0000 0000 0000 000000
2015-11-14 01:40:02,0.12,2.96,0.00,15.68,20.39,24.29,15.12,50.93,1022.97,2059.96,2391.01,2349.67,2567.67,599.93,614.89,33.37,0000 0000 0000 0000 000000
2015-11-14 01:45:03,0.11,2.96,0.00,15.68,20.38,24.27,15.08,50.83,1022.97,2059.97,2389.54,2348.51,2566.43,599.86,614.86,33.42,0000 0000 0000 0000 000000
2015-11-14 01:50:04,0.10,2.97,0.00,15.63,20.36,24.23,15.12,50.77,1022.96,2059.97,2388.03,2347.36,2565.12,600.12,615.17,33.47,0000 0000 0000 0000 000000
2015-11-14 01:55:06,0.13,2.97,0.00,15.60,20.34,24.24,15.04,50.88,1022.96,2059.98,2386.58,2346.25,2563.80,599.89,615.03,33.52,0000 0000 0000 0000 000000
2015-11-14 02:00:07,0.16,2.98,0.00,15.62,20.32,24.22,15.13,51.02,1022.94,2059.99,2384.71,2344.58,2561.98,600.14,615.12,33.57,0000 0000 0000 0000 000000
2015-11-14 02:05:08,0.10,2.99,0.00,15.61,20.30,24.18,15.15,50.84,1022.96,2059.99,2383.21,2343.27,2560.66,599.96,614.98,33.62,0000 0000 0000 0000 000000
2015-11-14 02:10:09,0.09,2.99,0.00,15.57,20.29,24.13,15.13,50.95,1022.96,2059.99,2381.91,2342.42,2559.68,600.01,615.23,33.67,0000 0000 0000 0000 000000
2015-11-14 02:15:11,0.10,3.00,0.00,15.56,20.27,24.17,15.21,51.07,1022.95,2060.00,2380.61,2341.40,2558.74,600.26,615.48,33.72,0000 0000 0000 0000 000000
2015-11-14 02:20:12,0.12,3.00,0.00,15.53,20.25,24.14,15.17,51.02,1022.90,2060.01,2378.95,2340.04,2557.41,599.81,615.04,33.77,0000 0000 0000 0000 000000
2015-11-14 02:25:13,0.14,3.01,0.00,15.50,20.23,24.10,15.12,50.92,1022.94,2060.03,2377.31,2338.65,2555.83,600.01,615.27,33.82,0000 0000 0000 0000 000000
2015-11-14 02:30:15,0.10,3.02,0.00,15.52,20.22,24.07,15.08,50.92,1022.84,2060.03,2375.78,2337.55,2554.55,599.97,615.20,33.87,0000 0000 0000 0000 000000
2015-11-14 02:35:16,0.13,3.02,0.00,15.51,20.19,24.09,15.16,51.11,1022.78,2060.13,2374.22,2336.32,2553.16,600.05,615.27,33.92,0000 0000 0000 0000 000000
2015-11-14 02:40:17,0.16,3.03,0.00,15.45,20.18,24.09,15.10,50.93,1022.86,2060.21,2372.38,2334.61,2551.41,599.89,615.26,33.97,0000 0000 0000 0000 000000
2015-11-14 02:45:19,0.14,3.04,0.00,15.44,20.17,24.04,15.11,51.13,1022.79,2060.59,2370.90,2333.44,2550.08,600.04,615.43,34.02,0000 0000 0000 0000 000000
2015-11-14 02:50:20,0.11,3.05,0.00,15.43,20.15,24.02,15.09,50.82,1022.84,2060.84,2369.64,2332.53,2549.07,599.96,615.48,34.08,0000 0000 0000 0000 000000
2015-11-14 02:55:21,0.09,3.05,0.00,15.40,20.13,24.03,15.11,50.83,1022.95,2060.94,2368.46,2331.72,2548.10,599.69,615.22,34.13,0000 0000 0000 0000 000000
2015-11-14 03:00:23,0.07,3.06,0.00,15.44,20.12,23.99,15.15,50.94,1022.95,2060.98,2367.43,2330.97,2547.21,599.88,615.36,34.18,0000 0000 0000 0000 000000
2015-11-14 03:05:24,0.09,3.06,0.00,15.42,20.10,23.99,15.14,50.79,1022.93,2060.99,2366.33,2330.01,2546.15,600.20,615.70,34.23,0000 0000 0000 0000 000000
2015-11-14 03:10:26,0.12,3.06,0.00,15.38,20.09,23.97,15.11,50.79,1022.62,2060.99,2365.02,2328.86,2544.95,599.97,615.37,34.28,0000 0000 0000 0000 000000
2015-11-14 03:15:27,0.13,3.07,0.00,15.42,20.07,23.96,15.13,51.07,1022.49,2060.99,2363.40,2327.63,2543.55,600.27,615.38,34.33,0000 0000 0000 0000 000000
2015-11-14 03:20:28,0.12,3.08,0.00,15.41,20.05,23.97,15.12,51.11,1022.49,2060.99,2361.81,2326.39,2542.03,599.78,615.07,34.38,0000 0000 0000 0000 000000
2015-11-14 03:25:29,0.11,3.08,0.00,15.40,20.04,23.95,15.08,50.93,1022.48,2060.99,2360.46,2325.12,2540.73,599.68,615.03,34.43,0000 0000 0000 0000 000000
2015-11-14 03:30:30,0.08,3.09,0.00,15.42,20.02,23.93,15.13,50.88,1022.49,2060.99,2359.24,2324.17,2539.82,600.05,615.27,34.48,0000 0000 0000 0000 000000
2015-11-14 03:35:32,0.09,3.09,0.00,15.38,20.01,23.93,15.21,50.78,1022.50,2061.01,2358.06,2323.25,2538.90,600.37,615.70,34.53,0000 0000 0000 0000 000000
2015-11-14 03:40:33,0.10,3.10,0.00,15.35,19.99,23.91,15.15,50.87,1022.48,2061.03,2356.81,2322.46,2537.85,600.09,615.41,34.58,0000 0000 0000 0000 000000
2015-11-14 03:45:34,0.11,3.10,0.00,15.38,19.98,23.90,15.11,50.89,1022.48,2061.04,2355.44,2321.36,2536.66,600.07,615.39,34.63,0000 0000 0000 0000 000000
2015-11-14 03:50:35,0.15,3.11,0.00,15.37,19.97,23.91,15.16,51.02,1022.48,2061.06,2353.85,2319.93,2535.19,600.07,615.40,34.68,0000 0000 0000 0000 000000
2015-11-14 03:55:37,0.24,3.12,0.00,15.34,19.96,23.88,15.09,51.02,1022.48,2061.47,2351.93,2317.98,2533.29,599.97,615.43,34.73,0000 0000 0000 0000 000000
2015-11-14 04:00:38,0.19,3.13,0.00,15.34,19.94,23.89,15.15,51.02,1022.48,2061.72,2349.79,2316.00,2531.21,600.01,615.39,34.78,0000 0000 0000 0000 000000
2015-11-14 04:05:40,0.14,3.14,0.00,15.31,19.93,23.84,15.13,50.98,1022.49,2061.84,2347.97,2314.41,2529.51,599.65,615.18,34.83,0000 0000 0000 0000 000000
2015-11-14 04:10:41,0.11,3.15,0.00,15.29,19.92,23.87,15.10,50.96,1022.49,2061.94,2346.53,2313.24,2528.31,599.67,615.14,34.88,0000 0000 0000 0000 000000
2015-11-14 04:15:42,0.09,3.15,0.00,15.32,19.91,23.82,15.20,50.92,1022.48,2061.97,2345.19,2312.28,2527.30,600.26,615.73,34.93,0000 0000 0000 0000 000000
2015-11-14 04:20:44,0.11,3.16,0.00,15.31,19.89,23.81,15.10,50.84,1022.48,2061.99,2343.80,2311.21,2526.01,599.98,615.54,34.99,0000 0000 0000 0000 000000
2015-11-14 04:25:45,0.11,3.16,0.00,15.29,19.89,23.82,15.13,50.88,1022.50,2061.98,2342.34,2310.02,2524.77,600.06,615.57,35.04,0000 0000 0000 0000 000000
2015-11-14 04:30:46,0.11,3.17,0.00,15.29,19.88,23.79,15.14,50.74,1022.65,2061.98,2340.84,2308.94,2523.56,600.04,615.66,35.09,0000 0000 0000 0000 000000
2015-11-14 04:35:48,0.12,3.18,0.00,15.29,19.87,23.82,15.14,50.72,1022.83,2061.99,2339.44,2307.75,2522.38,599.92,615.50,35.14,0000 0000 0000 0000 000000
2015-11-14 04:40:49,0.09,3.18,0.00,15.27,19.86,23.84,15.14,50.98,1022.74,2061.99,2337.99,2306.79,2521.11,600.28,615.93,35.19,0000 0000 0000 0000 000000
2015-11-14 04:45:51,0.14,3.19,0.00,15.29,19.84,23.82,15.15,51.18,1022.57,2061.99,2336.51,2305.57,2519.73,599.88,615.48,35.24,0000 0000 0000 0000 000000
2015-11-14 04:50:52,0.12,3.19,0.00,15.29,19.84,23.78,15.13,50.89,1022.70,2061.99,2334.79,2304.32,2518.34,599.93,615.56,35.29,0000 0000 0000 0000 000000
2015-11-14 04:55:53,0.13,3.20,0.00,15.27,19.82,23.78,15.14,50.67,1022.71,2061.99,2333.10,2303.05,2516.88,599.89,615.59,35.34,0000 0000 0000 0000 000000
2015-11-14 05:00:54,0.21,3.21,0.00,15.31,19.82,23.77,15.08,50.73,1022.57,2062.00,2330.70,2301.19,2514.69,600.00,615.45,35.39,0000 0000 0000 0000 000000
2015-11-14 05:05:56,0.16,3.22,0.00,15.29,19.81,23.79,15.19,50.70,1022.85,2062.01,2328.52,2299.26,2512.66,600.23,615.96,35.44,0000 0000 0000 0000 000000
2015-11-14 05:10:57,0.17,3.23,0.00,15.26,19.80,23.76,15.12,50.60,1022.93,2062.01,2326.57,2297.47,2510.82,599.96,615.85,35.49,0000 0000 0000 0000 000000
2015-11-14 05:15:58,0.14,3.24,0.00,15.28,19.79,23.74,15.11,50.52,1022.98,2062.03,2324.79,2295.96,2509.33,599.85,615.68,35.54,0000 0000 0000 0000 000000
2015-11-14 05:21:00,0.11,3.24,0.00,15.28,19.79,23.72,15.09,50.48,1023.17,2062.04,2323.20,2294.73,2508.01,599.97,615.87,35.59,0000 0000 0000 0000 000000
2015-11-14 05:26:01,0.12,3.25,0.00,15.27,19.78,23.77,15.14,50.45,1023.31,2062.05,2321.81,2293.60,2506.84,599.86,615.90,35.64,0000 0000 0000 0000 000000
2015-11-14 05:31:03,0.10,3.25,0.00,15.29,19.77,23.76,15.09,50.52,1023.10,2062.07,2320.49,2292.66,2505.73,600.00,615.78,35.69,0000 0000 0000 0000 000000
2015-11-14 05:36:04,0.14,3.26,0.00,15.29,19.77,23.78,15.18,50.53,1023.28,2062.08,2318.80,2291.27,2504.20,600.28,616.19,35.74,0000 0000 0000 0000 000000
2015-11-14 05:41:05,0.18,3.27,0.00,15.28,19.77,23.74,15.12,50.59,1023.43,2062.15,2316.83,2289.40,2502.31,599.94,616.09,35.79,0000 0000 0000 0000 000000
2015-11-14 05:46:06,0.10,3.28,0.00,15.32,19.76,23.74,15.08,50.57,1023.45,2062.14,2315.19,2288.21,2500.85,599.96,615.96,35.85,0000 0000 0000 0000 000000
2015-11-14 05:51:08,0.15,3.28,0.00,15.32,19.75,23.77,15.13,50.45,1023.45,2062.14,2313.30,2286.68,2499.24,599.81,615.78,35.90,0000 0000 0000 0000 000000
2015-11-14 05:56:09,0.12,3.29,0.00,15.29,19.75,23.79,15.22,50.58,1023.45,2062.16,2311.78,2285.60,2497.96,600.34,616.37,35.95,0000 0000 0000 0000 000000
2015-11-14 06:01:10,0.15,3.30,0.00,15.33,19.75,23.81,15.12,50.53,1023.45,2062.26,2310.15,2284.28,2496.60,599.90,615.90,36.00,0000 0000 0000 0000 000000
2015-11-14 06:06:11,0.19,3.30,0.00,15.36,19.75,23.81,15.10,50.67,1023.45,2062.20,2308.14,2282.41,2494.78,599.97,615.91,36.05,0000 0000 0000 0000 000000
2015-11-14 06:11:12,0.15,3.31,0.00,15.35,19.74,23.79,15.15,50.52,1023.47,2062.11,2305.84,2280.39,2492.74,600.04,616.02,36.10,0000 0000 0000 0000 000000
2015-11-14 06:16:14,0.13,3.32,0.00,15.34,19.75,23.76,15.15,50.45,1023.81,2062.09,2304.02,2278.99,2491.13,600.03,616.24,36.15,0000 0000 0000 0000 000000
2015-11-14 06:21:15,0.12,3.33,0.00,15.37,19.75,23.75,15.11,50.36,1023.94,2062.16,2302.67,2277.93,2489.94,599.93,616.07,36.20,0000 0000 0000 0000 000000
2015-11-14 06:26:16,0.11,3.33,0.00,15.37,19.75,23.77,15.19,50.48,1023.98,2062.15,2301.32,2276.88,2488.80,600.07,616.30,36.25,0000 0000 0000 0000 000000
2015-11-14 06:31:17,0.10,3.34,0.00,15.38,19.76,23.80,15.13,50.57,1024.17,2062.15,2300.01,2275.87,2487.71,600.11,616.52,36.30,0000 0000 0000 0000 000000
2015-11-14 06:36:18,0.10,3.34,0.00,15.39,19.76,23.75,15.13,50.50,1023.96,2062.12,2298.62,2274.88,2486.52,600.00,616.11,36.35,0000 0000 0000 0000 000000
2015-11-14 06:41:20,0.09,3.35,0.00,15.39,19.76,23.77,15.08,50.36,1023.94,2062.12,2297.31,2273.85,2485.48,599.75,615.85,36.40,0000 0000 0000 0000 000000
2015-11-14 06:46:21,0.16,3.36,0.00,15.39,19.77,23.79,15.03,50.57,1023.91,2062.08,2295.57,2272.48,2483.96,599.88,615.96,36.45,0000 0000 0000 0000 000000
2015-11-14 06:51:23,0.12,3.36,0.00,15.43,19.77,23.83,15.13,50.86,1023.93,2062.05,2293.82,2271.08,2482.43,599.92,615.93,36.50,0000 0000 0000 0000 000000
2015-11-14 06:56:24,0.12,3.37,0.00,15.45,19.77,23.78,15.14,50.58,1023.87,2062.04,2292.16,2269.82,2480.99,599.81,615.79,36.55,0000 0000 0000 0000 000000
2015-11-14 07:01:25,0.13,3.38,0.00,15.43,19.77,23.82,15.15,50.62,1023.86,2062.06,2290.58,2268.65,2479.71,599.98,616.02,36.60,0000 0000 0000 0000 000000
2015-11-14 07:06:27,0.14,3.38,0.00,15.47,19.77,23.84,15.10,50.54,1023.91,2062.06,2288.82,2267.29,2478.20,599.71,615.68,36.65,0000 0000 0000 0000 000000
2015-11-14 07:11:28,0.16,3.39,0.00,15.51,19.77,23.83,15.18,50.80,1023.89,2062.06,2287.05,2265.70,2476.46,600.23,616.17,36.70,0000 0000 0000 0000 000000
2015-11-14 07:16:29,0.12,3.40,0.00,15.51,19.78,23.83,15.14,50.52,1023.90,2062.07,2285.37,2264.42,2474.89,599.81,615.63,36.76,0000 0000 0000 0000 000000
2015-11-14 07:21:31,0.11,3.40,0.00,15.50,19.79,23.88,15.14,50.64,1023.93,2062.06,2283.87,2263.26,2473.72,600.09,615.99,36.81,0000 0000 0000 0000 000000
2015-11-14 07:26:32,0.13,3.41,0.00,15.55,19.79,23.86,15.07,50.74,1023.95,2062.06,2282.24,2261.95,2472.34,599.75,615.61,36.86,0000 0000 0000 0000 000000
2015-11-14 07:31:33,0.14,3.42,0.00,15.58,19.79,23.80,15.08,50.63,1023.96,2062.05,2280.59,2260.68,2470.95,600.08,615.72,36.91,0000 0000 0000 0000 000000
2015-11-14 07:36:34,0.11,3.43,0.00,15.57,19.80,23.82,15.24,50.96,1023.99,2062.02,2279.04,2259.45,2469.56,600.33,616.21,36.96,0000 0000 0000 0000 000000
2015-11-14 07:41:36,0.10,3.43,0.00,15.58,19.82,23.82,15.19,50.55,1024.25,2062.01,2277.71,2258.40,2468.42,600.28,616.23,37.01,0000 0000 0000 0000 000000
2015-11-14 07:46:37,0.10,3.44,0.00,15.62,19.82,23.91,15.22,50.83,1024.18,2062.01,2276.36,2257.36,2467.29,600.25,616.08,37.06,0000 0000 0000 0000 000000
2015-11-14 07:51:38,0.11,3.44,0.00,15.62,19.84,23.85,15.07,50.61,1024.41,2062.01,2274.88,2256.32,2466.05,599.63,615.55,37.11,0000 0000 0000 0000 000000
2015-11-14 07:56:39,0.12,3.45,0.00,15.58,19.84,23.88,15.08,50.42,1024.43,2062.01,2273.37,2255.10,2464.70,600.13,616.23,37.16,0000 0000 0000 0000 000000
2015-11-14 08:01:40,0.13,3.46,0.00,15.62,19.85,23.91,15.13,50.70,1024.49,2062.00,2271.88,2253.83,2463.37,600.01,616.02,37.21,0000 0000 0000 0000 000000
2015-11-14 08:06:42,0.10,3.46,0.00,15.64,19.87,23.92,15.12,50.47,1024.65,2062.00,2270.45,2252.80,2462.18,600.02,616.07,37.26,0000 0000 0000 0000 000000
2015-11-14 08:11:43,0.12,3.47,0.00,15.64,19.87,23.85,15.14,50.54,1024.89,2062.00,2269.05,2251.57,2461.12,600.26,616.54,37.31,0000 0000 0000 0000 000000
2015-11-14 08:16:44,0.10,3.47,0.00,15.62,19.88,23.93,15.17,50.59,1024.91,2062.00,2267.73,2250.61,2460.00,600.15,616.40,37.36,0000 0000 0000 0000 000000
2015-11-14 08:21:45,0.12,3.48,0.00,15.66,19.89,23.89,15.11,50.65,1024.90,2062.00,2266.18,2249.43,2458.70,600.06,616.22,37.41,0000 0000 0000 0000 000000
2015-11-14 08:26:47,0.12,3.49,0.00,15.67,19.89,23.92,15.18,50.69,1024.92,2061.98,2264.63,2248.19,2457.25,600.18,616.24,37.46,0000 0000 0000 0000 000000
2015-11-14 08:31:48,0.17,3.49,0.00,15.64,19.90,23.91,15.10,50.54,1024.92,2061.98,2262.78,2246.68,2455.54,599.73,616.13,37.51,0000 0000 0000 0000 000000
2015-11-14 08:36:50,0.13,3.50,0.00,15.67,19.92,23.96,15.11,50.62,1024.92,2061.98,2261.00,2245.23,2453.79,599.94,616.13,37.56,0000 0000 0000 0000 000000
2015-11-14 08:41:51,0.11,3.51,0.00,15.69,19.92,23.92,15.13,50.63,1024.94,2061.96,2259.64,2244.10,2452.47,599.96,616.08,37.62,0000 0000 0000 0000 000000
2015-11-14 08:46:52,0.16,3.51,0.00,15.69,19.92,23.96,15.10,50.61,1025.00,2061.97,2257.90,2242.72,2450.86,599.99,616.10,37.67,0000 0000 0000 0000 000000
2015-11-14 08:51:54,0.12,3.52,0.00,15.66,19.93,23.96,15.13,50.58,1025.14,2061.95,2256.29,2241.51,2449.54,600.06,616.23,37.72,0000 0000 0000 0000 000000
2015-11-14 08:56:55,0.11,3.53,0.00,15.70,19.94,23.96,15.08,50.35,1025.17,2061.93,2254.76,2240.46,2448.25,599.79,616.03,37.77,0000 0000 0000 0000 000000
2015-11-14 09:01:57,0.09,3.53,0.00,15.72,19.94,23.97,15.14,50.60,1025.23,2061.78,2253.35,2239.11,2446.91,599.93,616.20,37.82,0000 0000 0000 0000 000000
2015-11-14 09:06:58,0.14,3.54,0.00,15.71,19.95,23.99,15.06,50.58,1025.30,2061.62,2251.69,2237.98,2445.49,599.91,616.23,37.87,0000 0000 0000 0000 000000
2015-11-14 09:11:59,0.08,3.54,0.00,15.70,19.96,24.03,15.19,50.73,1025.34,2061.57,2250.35,2236.85,2444.30,600.25,616.68,37.92,0000 0000 0000 0000 000000
2015-11-14 09:17:01,0.11,3.55,0.00,15.74,19.97,24.00,15.13,51.01,1025.04,2061.61,2248.95,2235.84,2443.13,600.07,616.14,37.97,0000 0000 0000 0000 000000
2015-11-14 09:22:02,0.10,3.55,0.00,15.73,19.97,24.00,15.09,50.62,1025.00,2061.33,2247.54,2234.69,2441.92,599.82,615.88,38.02,0000 0000 0000 0000 000000
2015-11-14 09:27:03,0.08,3.56,0.00,15.72,19.97,23.99,15.17,50.68,1025.25,2061.13,2246.21,2233.66,2440.76,599.81,616.06,38.07,0000 0000 0000 0000 000000
2015-11-14 09:32:04,0.10,3.56,0.00,15.75,19.99,24.02,15.12,50.77,1025.20,2061.05,2244.79,2232.76,2439.66,600.02,616.20,38.12,0000 0000 0000 0000 000000
2015-11-14 09:37:05,0.07,3.57,0.00,15.77,19.99,24.05,15.15,50.63,1025.40,2061.05,2243.64,2231.99,2438.76,600.20,616.44,38.17,0000 0000 0000 0000 000000
2015-11-14 09:42:07,0.11,3.57,0.00,15.74,19.99,24.04,15.13,50.62,1025.40,2061.06,2242.43,2231.01,2437.69,600.04,616.33,38.22,0000 0000 0000 0000 000000
2015-11-14 09:47:08,0.10,3.58,0.00,15.73,20.00,24.08,15.13,50.82,1025.42,2061.03,2241.00,2229.93,2436.56,599.77,616.17,38.27,0000 0000 0000 0000 000000
2015-11-14 09:52:09,0.11,3.58,0.00,15.76,20.01,24.08,15.09,50.87,1025.43,2061.02,2239.64,2228.95,2435.46,599.90,616.16,38.32,0000 0000 0000 0000 000000
2015-11-14 09:57:11,0.14,3.59,0.00,15.75,20.02,24.05,15.12,50.70,1025.44,2061.02,2238.24,2227.65,2434.08,599.81,616.11,38.37,0000 0000 0000 0000 000000
2015-11-14 10:02:12,0.13,3.60,0.00,15.76,20.02,24.05,15.14,50.83,1025.42,2061.01,2236.56,2226.45,2432.66,600.16,616.44,38.42,0000 0000 0000 0000 000000
2015-11-14 10:07:13,0.10,3.60,0.00,15.75,20.02,24.03,15.11,50.76,1025.43,2061.02,2235.18,2225.23,2431.48,600.12,616.48,38.47,0000 0000 0000 0000 000000
2015-11-14 10:12:15,0.12,3.61,0.00,15.78,20.04,24.08,15.13,50.71,1025.54,2061.00,2233.66,2224.08,2430.22,600.08,616.38,38.52,0000 0000 0000 0000 000000
2015-11-14 10:17:16,0.20,3.62,0.00,15.79,20.04,24.09,15.20,50.91,1025.47,2061.00,2231.41,2222.17,2428.06,600.47,616.71,38.58,0000 0000 0000 0000 000000
2015-11-14 10:22:18,0.15,3.63,0.00,15.78,20.04,24.05,15.11,50.80,1025.73,2061.00,2229.70,2220.77,2426.60,600.16,616.64,38.63,0000 0000 0000 0000 000000
2015-11-14 10:27:19,0.13,3.64,0.00,15.77,20.04,24.08,15.17,50.80,1025.81,2061.00,2228.08,2219.53,2425.15,600.01,616.53,38.68,0000 0000 0000 0000 000000
2015-11-14 10:32:21,0.10,3.64,0.00,15.79,20.04,24.10,15.11,50.85,1025.86,2061.00,2226.78,2218.51,2424.00,600.02,616.44,38.73,0000 0000 0000 0000 000000
2015-11-14 10:37:22,0.11,3.65,0.00,15.79,20.05,24.06,15.07,50.77,1025.89,2061.00,2225.45,2217.53,2422.92,599.77,616.27,38.78,0000 0000 0000 0000 000000
2015-11-14 10:42:23,0.10,3.65,0.00,15.77,20.05,24.07,15.04,50.83,1025.90,2061.00,2224.10,2216.52,2421.84,599.67,616.20,38.83,0000 0000 0000 0000 000000
2015-11-14 10:47:24,0.08,3.66,0.00,15.77,20.06,24.08,15.15,50.71,1025.90,2060.99,2222.93,2215.68,2420.85,600.32,616.77,38.88,0000 0000 0000 0000 000000
2015-11-14 10:52:26,0.09,3.66,0.00,15.79,20.07,24.07,15.08,50.70,1025.90,2060.98,2221.69,2214.83,2419.91,599.93,616.38,38.93,0000 0000 0000 0000 000000
2015-11-14 10:57:27,0.10,3.67,0.00,15.78,20.07,24.08,15.03,50.65,1025.91,2060.99,2220.49,2213.89,2418.89,599.61,616.11,38.98,0000 0000 0000 0000 000000
2015-11-14 11:02:28,0.09,3.67,0.00,15.75,20.07,24.11,15.14,50.70,1026.14,2060.99,2219.13,2212.97,2417.85,600.07,616.96,39.03,0000 0000 0000 0000 000000
2015-11-14 11:07:29,0.09,3.68,0.00,15.77,20.07,24.11,15.11,50.73,1026.30,2060.98,2217.96,2212.09,2416.91,599.65,616.33,39.08,0000 0000 0000 0000 000000
2015-11-14 11:12:31,0.10,3.68,0.00,15.79,20.07,24.07,15.17,50.73,1026.38,2060.98,2216.70,2211.21,2415.95,600.13,616.91,39.13,0000 0000 0000 0000 000000
2015-11-14 11:17:32,0.09,3.69,0.00,15.79,20.07,24.10,15.18,50.88,1026.38,2060.98,2215.69,2210.32,2415.02,600.00,616.71,39.18,0000 0000 0000 0000 000000
2015-11-14 11:22:33,0.09,3.69,0.00,15.77,20.07,24.07,15.15,50.73,1026.38,2060.98,2214.56,2209.59,2414.10,599.99,616.84,39.23,0000 0000 0000 0000 000000
2015-11-14 11:27:35,0.08,3.70,0.00,15.79,20.08,24.09,15.16,50.62,1026.39,2060.95,2213.37,2208.76,2413.14,599.84,616.69,39.28,0000 0000 0000 0000 000000
2015-11-14 11:32:36,0.08,3.70,0.00,15.81,20.09,24.11,15.13,50.75,1026.39,2060.98,2212.20,2207.96,2412.18,599.85,616.58,39.33,0000 0000 0000 0000 000000
2015-11-14 11:37:37,0.09,3.71,0.00,15.78,20.09,24.08,15.16,50.68,1026.39,2060.97,2211.03,2207.09,2411.30,599.96,616.62,39.38,0000 0000 0000 0000 000000
2015-11-14 11:42:38,0.10,3.71,0.00,15.76,20.09,24.13,15.12,50.76,1026.43,2060.97,2209.83,2206.22,2410.35,600.00,616.90,39.43,0000 0000 0000 0000 000000
2015-11-14 11:47:40,0.10,3.72,0.00,15.79,20.09,24.10,15.12,50.70,1026.67,2060.97,2208.66,2205.41,2409.42,599.74,616.64,39.49,0000 0000 0000 0000 000000
2015-11-14 11:52:41,0.09,3.72,0.00,15.79,20.09,24.13,15.09,50.48,1026.84,2060.98,2207.47,2204.61,2408.53,599.82,616.88,39.54,0000 0000 0000 0000 000000
2015-11-14 11:57:43,0.08,3.73,0.00,15.77,20.09,24.15,15.11,50.60,1026.87,2060.95,2206.23,2203.75,2407.51,599.84,616.85,39.59,0000 0000 0000 0000 000000
2015-11-14 12:02:44,0.07,3.73,0.00,15.78,20.09,24.11,15.12,50.79,1026.87,2060.94,2205.17,2202.98,2406.66,599.83,616.84,39.64,0000 0000 0000 0000 000000
2015-11-14 12:07:45,0.08,3.74,0.00,15.81,20.09,24.13,15.10,50.65,1026.87,2060.93,2204.07,2202.13,2405.83,599.73,616.79,39.69,0000 0000 0000 0000 000000
2015-11-14 12:12:46,0.10,3.74,0.00,15.80,20.09,24.13,15.13,50.67,1026.91,2060.87,2202.87,2201.35,2404.89,600.03,617.10,39.74,0000 0000 0000 0000 000000
2015-11-14 12:17:48,0.09,3.74,0.00,15.79,20.09,24.14,15.05,50.80,1026.96,2060.90,2201.73,2200.60,2404.02,599.50,616.55,39.79,0000 0000 0000 0000 000000
2015-11-14 12:22:49,0.06,3.75,0.00,15.81,20.09,24.12,15.18,50.76,1027.16,2060.83,2200.69,2199.89,2403.15,600.08,617.33,39.84,0000 0000 0000 0000 000000
2015-11-14 12:27:50,0.06,3.75,0.00,15.82,20.10,24.10,15.11,50.64,1027.29,2060.66,2199.58,2199.05,2402.21,599.78,617.03,39.89,0000 0000 0000 0000 000000
2015-11-14 12:32:52,0.09,3.76,0.00,15.82,20.10,24.10,15.12,50.69,1027.34,2060.37,2198.49,2198.17,2401.29,599.89,617.15,39.94,0000 0000 0000 0000 000000
2015-11-14 12:37:53,0.10,3.76,0.00,15.78,20.10,24.12,15.07,50.69,1027.34,2060.47,2197.32,2197.53,2400.56,600.09,617.40,39.99,0000 0000 0000 0000 000000
2015-11-14 12:42:55,0.03,3.76,0.00,15.81,20.11,24.09,15.16,50.71,1027.36,2060.30,2196.30,2196.78,2399.69,599.81,617.12,40.04,0000 0000 0000 0000 000000
2015-11-14 12:47:56,0.06,3.77,0.00,15.82,20.11,24.10,15.17,50.62,1027.36,2060.13,2195.16,2196.00,2398.76,600.03,617.34,40.09,0000 0000 0000 0000 000000
2015-11-14 12:52:57,0.09,3.77,0.00,15.81,20.10,24.09,15.10,50.73,1027.36,2060.08,2194.07,2195.14,2397.91,600.07,617.34,40.14,0000 0000 0000 0000 000000
2015-11-14 12:57:59,0.08,3.78,0.00,15.77,20.10,24.12,15.11,50.63,1027.36,2060.13,2193.02,2194.57,2397.08,599.89,617.32,40.19,0000 0000 0000 0000 000000